Weather History for Frederick, OK

Change the Weather History Date:

Friday, January 31, 2014

  Actual Average (KLTS) Record (KLTS)
Temperature  
Mean Temperature 38 °F -  
Max Temperature 45 °F 50 °F 71 °F (1997)
Min Temperature 28 °F 27 °F 17 °F (2008)
Degree Days  
Heating Degree Days 28    
Moisture  
Dew Point 27 °F    
Average Humidity 66    
Maximum Humidity 79    
Minimum Humidity 52    
Precipitation  
Precipitation 0.00 in - - ()
Sea Level Pressure  
Sea Level Pressure 29.76 in    
Wind  
Wind Speed 10 mph (North)    
Max Wind Speed 20 mph    
Max Gust Speed -    
Visibility 10 miles    
Events      
Averages and records for this station are not official NWS values.
T = Trace of Precipitation, MM = Missing Value Source: NWS Daily Summary

Daily Weather History Graph

Daily Weather History Graph

Search for Another Location

Airport:

Trip Planner

Search our weather history database for the weather conditions in past years. The results will help you decide how hot, cold, wet, or windy it might be!

Date:

Astronomy

Jan. 31, 2014 Rise Set
Actual Time 7:34 AM CST 6:04 PM CST
Civil Twilight 7:07 AM CST 6:31 PM CST
Nautical Twilight 6:37 AM CST 7:01 PM CST
Astronomical Twilight 6:08 AM CST 7:31 PM CST
Moon 7:49 AM CST (1/31) 7:25 PM CST (1/31)
Length of Visible Light 11h 23m
Length of Day
10h 30m
New Moon, 1% of the Moon is Illuminated
Jan 31
New Moon
Feb 6
First Quarter
Feb 14
Full
Feb 22
Last Quarter
Mar 1
New

Hourly Weather History & Observations

Time (CST) Temp. Windchill Dew Point Humidity Pressure Visibility Wind Dir Wind Speed Gust Speed Precip Events Conditions
12:53 AM 39.9 °F 33.9 °F 28.0 °F 63% 29.65 in 10.0 mi East 9.2 mph - N/A   Clear
1:53 AM 37.9 °F 32.7 °F 28.0 °F 68% 29.65 in 10.0 mi ENE 6.9 mph - N/A   Clear
2:53 AM 37.9 °F 33.5 °F 30.0 °F 73% 29.65 in 10.0 mi ESE 5.8 mph - N/A   Clear
3:53 AM 37.9 °F 30.5 °F 30.0 °F 73% 29.65 in 10.0 mi SSE 11.5 mph - N/A   Clear
4:53 AM 36.0 °F 33.3 °F 28.9 °F 76% 29.65 in 10.0 mi SW 3.5 mph - N/A   Clear
5:53 AM 34.0 °F 28.0 °F 23.0 °F 64% 29.68 in 10.0 mi WSW 6.9 mph - N/A   Clear
6:53 AM 32.0 °F 27.5 °F 21.9 °F 66% 29.71 in 10.0 mi SW 4.6 mph - N/A   Clear
7:53 AM 32.0 °F 27.5 °F 21.9 °F 66% 29.74 in 10.0 mi WSW 4.6 mph - N/A   Clear
8:53 AM 36.0 °F 30.3 °F 28.0 °F 73% 29.76 in 10.0 mi WNW 6.9 mph - N/A   Clear
9:53 AM 41.0 °F 34.3 °F 30.9 °F 67% 29.79 in 10.0 mi North 11.5 mph - N/A   Clear
10:53 AM 43.0 °F 36.0 °F 30.9 °F 62% 29.83 in 10.0 mi NNW 13.8 mph - N/A   Clear
11:53 AM 44.1 °F 36.5 °F 30.0 °F 58% 29.84 in 10.0 mi NNW 17.3 mph - N/A   Clear
12:53 PM 44.1 °F 36.5 °F 28.0 °F 53% 29.82 in 10.0 mi North 17.3 mph - N/A   Clear
1:53 PM 45.0 °F 37.9 °F 28.9 °F 53% 29.82 in - North 16.1 mph - N/A   Clear
2:53 PM 45.0 °F 38.2 °F 28.0 °F 52% 29.81 in - North 15.0 mph - N/A   Clear
3:53 PM 43.0 °F 35.7 °F 28.0 °F 56% 29.83 in 10.0 mi North 15.0 mph - N/A   Clear
4:53 PM 41.0 °F 31.9 °F 28.0 °F 60% 29.79 in 10.0 mi North 19.6 mph - N/A   Clear
5:53 PM 39.0 °F 31.0 °F 28.0 °F 65% 29.78 in - North 13.8 mph - N/A   Clear
6:53 PM 37.0 °F 30.4 °F 28.0 °F 70% 29.78 in 10.0 mi North 9.2 mph - N/A   Clear
7:53 PM 35.1 °F 27.9 °F 27.0 °F 72% 29.78 in 10.0 mi North 9.2 mph - N/A   Clear
8:53 PM 34.0 °F 29.8 °F 26.1 °F 73% 29.79 in - North 4.6 mph - N/A   Clear
9:53 PM 32.0 °F 23.0 °F 25.0 °F 75% 29.79 in 10.0 mi North 11.5 mph - N/A   Clear
10:53 PM 30.0 °F 19.5 °F 24.1 °F 79% 29.79 in 8.0 mi North 13.8 mph - N/A   Clear
11:53 PM 28.9 °F 17.7 °F 23.0 °F 78% 29.80 in 8.0 mi North 15.0 mph - N/A   Clear